Page, AZ

11:58 AM MST on February 12, 2016 (GMT -0700)
Page Municipal

Weather History for KPGA - January, 2012

Change the Weather History Date:

Thursday, January 19, 2012

  Actual Average Record
Temperature  
Mean Temperature 42 °F -  
Max Temperature 50 °F 44 °F 60 °F (1959)
Min Temperature 35 °F 27 °F 8 °F (1968)
Degree Days  
Heating Degree Days 22    
Moisture  
Dew Point 18 °F    
Average Humidity 39    
Maximum Humidity 48    
Minimum Humidity 26    
Precipitation  
Precipitation 0.00 in - - ()
Sea Level Pressure  
Sea Level Pressure 30.01 in    
Wind  
Wind Speed 1 mph (SSE)    
Max Wind Speed 4 mph    
Max Gust Speed -    
Visibility 9 miles    
Events      
Averages and records for this station are not official NWS values.
T = Trace of Precipitation, MM = Missing Value Source: NWS Daily Summary

Daily Weather History Graph

Daily Weather History Graph

Search for Another Location

Airport or City:

Trip Planner

Search our weather history database for the weather conditions in past years. The results will help you decide how hot, cold, wet, or windy it might be!

Date:

Astronomy

Jan. 19, 2012 Rise Set
Actual Time 7:36 AM MST 5:36 PM MST
Civil Twilight 7:08 AM MST 6:04 PM MST
Nautical Twilight 6:36 AM MST 6:36 PM MST
Astronomical Twilight 6:05 AM MST 7:07 PM MST
Moon 4:15 AM MST (1/19) 2:13 PM MST (1/19)
Length of Visible Light 10h 56m
Length of Day
10h 00m
Waning Crescent, 15% of the Moon is Illuminated
Jan 19
Waning Crescent
Jan 23
New
Jan 30
First Quarter
Feb 7
Full
Feb 14
Last Quarter

Hourly Weather History & Observations

Time (MST) Temp. Windchill Dew Point Humidity Pressure Visibility Wind Dir Wind Speed Gust Speed Precip Events Conditions
12:53 AM 42.1 °F 40.2 °F 17.1 °F 37% 30.12 in 10.0 mi South 3.5 mph - N/A   Clear
1:53 AM 39.0 °F - 16.0 °F 39% 30.12 in 10.0 mi Calm Calm - N/A   Clear
2:53 AM 39.9 °F - 16.0 °F 38% 30.09 in 10.0 mi Calm Calm - N/A   Clear
3:53 AM 37.0 °F - 17.1 °F 44% 30.09 in 10.0 mi Calm Calm - N/A   Clear
4:53 AM 35.1 °F - 17.1 °F 48% 30.10 in 10.0 mi Calm Calm - N/A   Clear
5:53 AM 36.0 °F - 16.0 °F 44% 30.10 in 7.0 mi Calm Calm - N/A   Clear
6:53 AM 35.1 °F - 16.0 °F 46% 30.09 in 9.0 mi Calm Calm - N/A   Clear
7:53 AM 35.1 °F - 17.1 °F 48% 30.09 in 7.0 mi Calm Calm - N/A   Clear
8:53 AM 39.9 °F - 19.0 °F 43% 30.09 in 10.0 mi Calm Calm - N/A   Clear
9:53 AM 42.1 °F - 18.0 °F 38% 30.10 in 10.0 mi Calm Calm - N/A   Clear
10:53 AM 44.6 °F - 19.4 °F 37% 30.12 in 10.0 mi Calm Calm - N/A   Clear
11:53 AM 46.0 °F - 21.0 °F 37% 30.05 in 10.0 mi Calm Calm - N/A   Clear
12:53 PM 46.0 °F - 19.9 °F 35% 30.01 in 10.0 mi Calm Calm - N/A   Clear
1:53 PM 48.9 °F - 17.1 °F 28% 29.98 in 10.0 mi Calm Calm - N/A   Clear
2:53 PM 48.9 °F - 17.1 °F 28% 29.94 in 10.0 mi Calm Calm - N/A   Clear
3:53 PM 50.0 °F - 17.1 °F 27% 29.94 in 10.0 mi Calm Calm - N/A   Clear
4:53 PM 50.0 °F - 16.0 °F 26% 29.93 in 10.0 mi Calm Calm - N/A   Clear
5:53 PM 46.0 °F - 19.0 °F 34% 29.93 in 8.0 mi Calm Calm - N/A   Clear
6:53 PM 44.1 °F 42.5 °F 19.0 °F 37% 29.91 in 10.0 mi SE 3.5 mph - N/A   Clear
7:53 PM 43.0 °F - 18.0 °F 37% 29.91 in 8.0 mi Calm Calm - N/A   Clear
8:53 PM 41.0 °F - 19.0 °F 41% 29.91 in 8.0 mi Calm Calm - N/A   Clear
9:53 PM 41.0 °F 39.0 °F 19.0 °F 41% 29.90 in 10.0 mi SE 3.5 mph - N/A   Clear
10:53 PM 37.9 °F - 19.0 °F 47% 29.91 in 9.0 mi Calm Calm - N/A   Clear
11:53 PM 37.9 °F - 19.0 °F 47% 29.90 in 8.0 mi Calm Calm - N/A   Clear